Location: Lombard
(41.8800°N, 88.0080°W)
Time: 12:38:01
(UTC-05:00)

SEEDS - Visible Passes

Search period start: 16 May 2022 00:00
Search period end: 26 May 2022 00:00
Orbit: 582 x 598 km, 97.6° (Epoch: 15 May)

Date Brightness Start Highest point End Pass type
(mag) Time Alt. Az. Time Alt. Az. Time Alt. Az.
19 May ? 03:57:04 10° ENE 03:58:39 12° E 04:00:16 10° ESE visible
20 May ? 04:04:24 10° ENE 04:06:48 15° E 04:09:10 10° SE visible
21 May ? 04:11:59 10° NE 04:14:54 18° E 04:17:47 10° SE visible
22 May ? 04:19:42 10° NE 04:22:59 22° E 04:26:15 10° SE visible
23 May ? 04:27:28 10° NE 04:31:04 26° E 04:34:37 10° SSE visible
24 May ? 04:35:18 10° NNE 04:39:07 32° E 04:42:53 10° SSE visible
25 May ? 04:43:10 10° NNE 04:47:09 40° E 04:51:05 10° SSE visible
